TimeCDT,TemperatureF,Dew PointF,Humidity,Sea Level PressureIn,VisibilityMPH,Wind Direction,Wind SpeedMPH,Gust SpeedMPH,PrecipitationIn,Events,Conditions,WindDirDegrees,DateUTC
12:53 AM,62.1,39.0,43,29.80,10.0,South,13.8,-,N/A,,Clear,190,2014-04-26 05:53:00
1:53 AM,61.0,39.0,44,29.78,10.0,South,11.5,-,N/A,,Clear,180,2014-04-26 06:53:00
2:53 AM,60.1,37.9,44,29.77,10.0,South,11.5,-,N/A,,Clear,190,2014-04-26 07:53:00
3:53 AM,59.0,39.0,48,29.77,10.0,South,12.7,-,N/A,,Clear,190,2014-04-26 08:53:00
4:53 AM,55.9,39.0,53,29.77,10.0,South,13.8,-,N/A,,Clear,180,2014-04-26 09:53:00
5:53 AM,55.9,39.0,53,29.77,10.0,South,11.5,-,N/A,,Partly Cloudy,170,2014-04-26 10:53:00
6:53 AM,57.9,39.9,51,29.77,10.0,SSE,10.4,-,N/A,,Scattered Clouds,160,2014-04-26 11:53:00
7:53 AM,61.0,39.9,46,29.75,10.0,South,13.8,-,N/A,,Mostly Cloudy,170,2014-04-26 12:53:00
8:53 AM,64.9,42.1,43,29.75,10.0,South,13.8,-,N/A,,Scattered Clouds,180,2014-04-26 13:53:00
9:04 AM,63.0,41.0,45,29.77,10.0,South,12.7,-,N/A,Thunderstorm,Mostly Cloudy,190,2014-04-26 14:04:00
9:53 AM,62.1,46.0,56,29.75,10.0,SE,10.4,-,0.01,,Mostly Cloudy,130,2014-04-26 14:53:00
10:53 AM,62.1,50.0,65,29.76,10.0,South,13.8,-,N/A,,Overcast,170,2014-04-26 15:53:00
11:53 AM,66.0,51.1,59,29.74,10.0,South,24.2,31.1,N/A,,Overcast,170,2014-04-26 16:53:00
12:53 PM,75.9,50.0,40,29.70,10.0,SSE,24.2,34.5,N/A,,Mostly Cloudy,160,2014-04-26 17:53:00
1:53 PM,78.1,48.9,36,29.67,10.0,SSE,28.8,42.6,N/A,,Scattered Clouds,150,2014-04-26 18:53:00
2:53 PM,77.0,50.0,39,29.66,10.0,SSE,26.5,35.7,N/A,,Scattered Clouds,160,2014-04-26 19:53:00
3:53 PM,78.1,48.9,36,29.61,10.0,SE,26.5,35.7,N/A,,Mostly Cloudy,140,2014-04-26 20:53:00
4:53 PM,75.9,51.1,42,29.60,10.0,SE,19.6,32.2,N/A,,Mostly Cloudy,140,2014-04-26 21:53:00
5:53 PM,75.0,51.1,43,29.57,10.0,SE,19.6,31.1,N/A,,Overcast,140,2014-04-26 22:53:00
6:53 PM,75.0,51.1,43,29.59,10.0,SE,16.1,24.2,N/A,,Overcast,140,2014-04-26 23:53:00
7:53 PM,73.0,51.1,46,29.57,10.0,ESE,13.8,-,N/A,,Overcast,120,2014-04-27 00:53:00
8:53 PM,71.1,51.1,49,29.56,10.0,ESE,12.7,-,N/A,,Mostly Cloudy,120,2014-04-27 01:53:00
9:53 PM,69.1,50.0,51,29.57,10.0,SE,10.4,-,N/A,,Mostly Cloudy,130,2014-04-27 02:53:00
10:53 PM,68.0,50.0,52,29.58,10.0,ESE,10.4,-,N/A,,Scattered Clouds,120,2014-04-27 03:53:00
11:53 PM,64.9,50.0,58,29.57,10.0,SE,11.5,-,N/A,,Clear,140,2014-04-27 04:53:00